Regional Weather Roundup
Issued by NWS Albany, NY

Home | Current Version | Previous Version | Text Only | Print | Product List | Glossary On
Versions: 1 2 3 4 5 6 7 8 9 10 11 12 13 14 15 16 17 18 19 20 21 22 23 24 25 26 27 28 29 30 31 32 33 34 35 36 37 38 39 40 41 42 43 44 45 46 47 48 49 50
283
ASUS41 KALY 270010
RWRALY

NEW YORK STATE HOURLY WEATHER ROUNDUP
NATIONAL WEATHER SERVICE ALBANY NY
800 PM EDT WED JUL 26 2017

NOTE: "FAIR" INDICATES FEW OR NO CLOUDS BELOW 12,000 FEET WITH NO
SIGNIFICANT WEATHER AND/OR NO OBSTRUCTIONS TO VISIBILITY.

NYZ032-033-038>043-046>054-057>066-NYZ062>081-082-084-270100-
EAST


CITY           SKY/WX    TMP DP  RH WIND       PRES   REMARKS
ALBANY         CLOUDY    73  58  59 S9        30.09F
GLENS FALLS    CLOUDY    70  62  76 CALM      30.08F
POUGHKEEPSIE   CLOUDY    71  59  65 S3        30.11F
NEWBURGH       PTCLDY    72  63  73 S7        30.14
MONTGOMERY     CLOUDY    70  61  73 S7        30.12F
WHITE PLAINS   PTCLDY    69  55  60 S7        30.15S
ISLIP          MOCLDY    69  59  70 S7        30.15F
NEW YORK CITY  CLOUDY    72  55  55 S10       30.14S
CENTRAL PARK   PTCLDY    71  53  52 S8        30.17S
$$

NYZ005>009-017-018-044>046-055-056-270100-
CENTRAL


CITY           SKY/WX    TMP DP  RH WIND       PRES   REMARKS
FULTON         CLOUDY    70  65  84 CALM      30.07S
SYRACUSE       CLOUDY    71  60  68 S6        30.07S
ROME           CLOUDY    70  63  78 E6        30.09S
ELMIRA         MOCLDY    71  64  78 CALM      30.09R
BINGHAMTON     MOCLDY    67  60  78 S5        30.12S
$$

NYZ026>034-041>043-087-270100-
NORTH


CITY           SKY/WX    TMP DP  RH WIND       PRES   REMARKS
WATERTOWN      CLOUDY    69  65  86 CALM      30.08R
FORT DRUM      NOT AVBL
OGDENSBURG     FAIR      68  63  84 CALM      30.07S
MASSENA        CLOUDY    68  63  84 SW3       30.07F
SARANAC LAKE   LGT RAIN  63  59  87 SW5       30.11S
PLATTSBURGH    CLOUDY    70  63  78 CALM      30.05S
$$

NYZ001>004-010>016-019>021-085-270100-
WEST


CITY           SKY/WX    TMP DP  RH WIND       PRES   REMARKS
NIAGARA FALLS  CLOUDY    73  58  59 N7        30.08S
BUFFALO        CLOUDY    72  58  61 W6        30.08S
DUNKIRK        MOCLDY    71  63  75 CALM      30.09F
JAMESTOWN      CLOUDY    68  61  77 N7        30.12S
WELLSVILLE     MOCLDY    70  59  68 MISG      30.15S
ROCHESTER      CLOUDY    72  63  73 N9        30.08R
PENN YAN       CLOUDY    72  60  66 S7        30.08F
$$

             KEY
       WCI = WIND CHILL INDEX
       VSB = VISIBILITY
       HX  = HEAT INDEX
$$




USA.gov is the U.S. government's official web portal to all federal, state and local government web resources and services.